13/07/2024 00:30:00,0.011
13/07/2024 00:45:00,0.011
13/07/2024 01:00:00,0.011
13/07/2024 01:15:00,0.011
13/07/2024 01:30:00,0.011
13/07/2024 01:45:00,0.011
13/07/2024 02:00:00,0.011
13/07/2024 02:15:00,0.011
13/07/2024 02:30:00,0.011
13/07/2024 02:45:00,0.011
13/07/2024 03:00:00,0.01
13/07/2024 03:15:00,0.01
13/07/2024 03:30:00,0.01
13/07/2024 03:45:00,0.01
13/07/2024 04:00:00,0.01
13/07/2024 04:15:00,0.01
13/07/2024 04:30:00,0.01
13/07/2024 04:45:00,0.01
13/07/2024 05:00:00,0.01
13/07/2024 05:15:00,0.01
13/07/2024 05:30:00,0.01
13/07/2024 05:45:00,0.01
13/07/2024 06:00:00,0.01
13/07/2024 06:15:00,0.01
13/07/2024 06:30:00,0.01
13/07/2024 06:45:00,0.01
13/07/2024 07:00:00,0.01
13/07/2024 07:15:00,0.01
13/07/2024 07:30:00,0.01
13/07/2024 07:45:00,0.01
13/07/2024 08:00:00,0.01
13/07/2024 08:15:00,0.01
13/07/2024 08:30:00,0.009
13/07/2024 08:45:00,0.009
13/07/2024 09:00:00,0.009
13/07/2024 09:15:00,0.009
13/07/2024 09:30:00,0.009
13/07/2024 09:45:00,0.009
13/07/2024 10:00:00,0.009
13/07/2024 10:15:00,0.009
13/07/2024 10:30:00,0.009
13/07/2024 10:45:00,0.009
13/07/2024 11:00:00,0.009
13/07/2024 11:15:00,0.009
13/07/2024 11:30:00,0.009
13/07/2024 11:45:00,0.009
13/07/2024 12:00:00,0.008
13/07/2024 12:15:00,0.009
13/07/2024 12:30:00,0.009
13/07/2024 12:45:00,0.008
13/07/2024 13:00:00,0.008
13/07/2024 13:15:00,0.008
13/07/2024 13:30:00,0.008
13/07/2024 13:45:00,0.008
13/07/2024 14:00:00,0.008
13/07/2024 14:15:00,0.008
13/07/2024 14:30:00,0.007
13/07/2024 14:45:00,0.008
13/07/2024 15:00:00,0.007
13/07/2024 15:15:00,0.007
13/07/2024 15:30:00,0.007
13/07/2024 15:45:00,0.008
13/07/2024 16:00:00,0.007
13/07/2024 16:15:00,0.007
13/07/2024 16:30:00,0.007
13/07/2024 16:45:00,0.007
13/07/2024 17:00:00,0.006
13/07/2024 17:15:00,0.007
13/07/2024 17:30:00,0.007
13/07/2024 17:45:00,0.007
13/07/2024 18:00:00,0.006
13/07/2024 18:15:00,0.007
13/07/2024 18:30:00,0.007
13/07/2024 18:45:00,0.006
13/07/2024 19:00:00,0.006
13/07/2024 19:15:00,0.006
13/07/2024 19:30:00,0.006
13/07/2024 19:45:00,0.006
13/07/2024 20:00:00,0.007
13/07/2024 20:15:00,0.006
13/07/2024 20:30:00,0.006
13/07/2024 20:45:00,0.006
13/07/2024 21:00:00,0.006
13/07/2024 21:15:00,0.006
13/07/2024 21:30:00,0.006
13/07/2024 21:45:00,0.006
13/07/2024 22:00:00,0.006
13/07/2024 22:15:00,0.006
13/07/2024 22:30:00,0.006
13/07/2024 22:45:00,0.006
13/07/2024 23:00:00,0.006
13/07/2024 23:15:00,0.006
13/07/2024 23:30:00,0.006
13/07/2024 23:45:00,0.006
14/07/2024 00:00:00,0.006
14/07/2024 00:15:00,0.006
14/07/2024 00:30:00,0.006
14/07/2024 00:45:00,0.005
14/07/2024 01:00:00,0.006
14/07/2024 01:15:00,0.006
14/07/2024 01:30:00,0.005
14/07/2024 01:45:00,0.005
14/07/2024 02:00:00,0.005
14/07/2024 02:15:00,0.005
14/07/2024 02:30:00,0.006
14/07/2024 02:45:00,0.005
14/07/2024 03:00:00,0.005
14/07/2024 03:15:00,0.005
14/07/2024 03:30:00,0.005
14/07/2024 03:45:00,0.005
14/07/2024 04:00:00,0.005
14/07/2024 04:15:00,0.005
14/07/2024 04:30:00,0.005
14/07/2024 04:45:00,0.005
14/07/2024 05:00:00,0.006
14/07/2024 05:15:00,0.004
14/07/2024 05:30:00,0.005
14/07/2024 05:45:00,0.005
14/07/2024 06:00:00,0.004
14/07/2024 06:15:00,0.005
14/07/2024 06:30:00,0.005
14/07/2024 06:45:00,0.005
14/07/2024 07:00:00,0.005
14/07/2024 07:15:00,0.004
14/07/2024 07:30:00,0.005
14/07/2024 07:45:00,0.005
14/07/2024 08:00:00,0.005
14/07/2024 08:15:00,0.004
14/07/2024 08:30:00,0.004
14/07/2024 08:45:00,0.004
14/07/2024 09:00:00,0.004
14/07/2024 09:15:00,0.004
14/07/2024 09:30:00,0.004
14/07/2024 09:45:00,0.004
14/07/2024 10:00:00,0.004
14/07/2024 10:15:00,0.004
14/07/2024 10:30:00,0.004
14/07/2024 10:45:00,0.004
14/07/2024 11:00:00,0.004
14/07/2024 11:15:00,0.004
14/07/2024 11:30:00,0.004
14/07/2024 11:45:00,0.004
14/07/2024 12:00:00,0.003
14/07/2024 12:15:00,0.003
14/07/2024 12:30:00,0.003
14/07/2024 12:45:00,0.003
14/07/2024 13:00:00,0.003
14/07/2024 13:15:00,0.003
14/07/2024 13:30:00,0.003
14/07/2024 13:45:00,0.003
14/07/2024 14:00:00,0.003
14/07/2024 14:15:00,0.003
14/07/2024 14:30:00,0.003
14/07/2024 14:45:00,0.003
14/07/2024 15:00:00,0.003
14/07/2024 15:15:00,0.002
14/07/2024 15:30:00,0.002
14/07/2024 15:45:00,0.002
14/07/2024 16:00:00,0.002
14/07/2024 16:15:00,0.002
14/07/2024 16:30:00,0.002
14/07/2024 16:45:00,0.002
14/07/2024 17:00:00,0.002
14/07/2024 17:15:00,0.002
14/07/2024 17:30:00,0.002
14/07/2024 17:45:00,0.002
14/07/2024 18:00:00,0.002
14/07/2024 18:15:00,0.001
14/07/2024 18:30:00,0.001
14/07/2024 18:45:00,0.001
14/07/2024 19:00:00,0.001
14/07/2024 19:15:00,0.001
14/07/2024 19:30:00,0.001
14/07/2024 19:45:00,0.001
14/07/2024 20:00:00,0.001
14/07/2024 20:15:00,0.001
14/07/2024 20:30:00,0.001
14/07/2024 20:45:00,0
14/07/2024 21:00:00,0.001
14/07/2024 21:15:00,0
14/07/2024 21:30:00,0.001
14/07/2024 21:45:00,0.001
14/07/2024 22:00:00,0.001
14/07/2024 22:15:00,0.001
14/07/2024 22:30:00,0
14/07/2024 22:45:00,0
14/07/2024 23:00:00,0.001
14/07/2024 23:15:00,0.001
14/07/2024 23:30:00,0.001
14/07/2024 23:45:00,0.001
15/07/2024 00:00:00,0.001
15/07/2024 00:15:00,0
15/07/2024 00:30:00,0.001
15/07/2024 00:45:00,0.001
15/07/2024 01:00:00,0.001
15/07/2024 01:15:00,0
15/07/2024 01:30:00,0
15/07/2024 01:45:00,0
15/07/2024 02:00:00,0.001
15/07/2024 02:15:00,0.001
15/07/2024 02:30:00,0.001
15/07/2024 02:45:00,0.001
15/07/2024 03:00:00,0
15/07/2024 03:15:00,0.001
15/07/2024 03:30:00,0.001
15/07/2024 03:45:00,0.001
15/07/2024 04:00:00,0
15/07/2024 04:15:00,0
15/07/2024 04:30:00,0.001
15/07/2024 04:45:00,0.001
15/07/2024 05:00:00,0
15/07/2024 05:15:00,0.001
15/07/2024 05:30:00,0.001
15/07/2024 05:45:00,0
15/07/2024 06:00:00,0.001
15/07/2024 06:15:00,0
15/07/2024 06:30:00,0.001
15/07/2024 06:45:00,0.001
15/07/2024 07:00:00,0.001
15/07/2024 07:15:00,0
15/07/2024 07:30:00,0.001
15/07/2024 07:45:00,0.001
15/07/2024 08:00:00,0.001
15/07/2024 08:15:00,0.001
15/07/2024 08:30:00,0.001
15/07/2024 08:45:00,0.001
15/07/2024 09:00:00,0.001
15/07/2024 09:15:00,0
15/07/2024 09:30:00,0.001
15/07/2024 09:45:00,0.001
15/07/2024 10:00:00,0
15/07/2024 10:15:00,0.001
15/07/2024 10:30:00,0.001
15/07/2024 10:45:00,0.001
15/07/2024 11:00:00,0
15/07/2024 11:15:00,0
15/07/2024 11:30:00,0
15/07/2024 11:45:00,0.001
15/07/2024 12:00:00,0
15/07/2024 12:15:00,0
15/07/2024 12:30:00,0
15/07/2024 12:45:00,0
15/07/2024 13:00:00,0
15/07/2024 13:15:00,0
15/07/2024 13:30:00,0
15/07/2024 13:45:00,0
15/07/2024 14:00:00,0
15/07/2024 14:15:00,0
15/07/2024 14:30:00,0
15/07/2024 14:45:00,0
15/07/2024 15:00:00,0
15/07/2024 15:15:00,-0.001
15/07/2024 15:30:00,0
15/07/2024 15:45:00,0
15/07/2024 16:00:00,0
15/07/2024 16:15:00,0
15/07/2024 16:30:00,-0.001
15/07/2024 16:45:00,-0.001
15/07/2024 17:00:00,-0.001
15/07/2024 17:15:00,-0.001
15/07/2024 17:30:00,-0.001
15/07/2024 17:45:00,-0.001
15/07/2024 18:00:00,0
15/07/2024 18:15:00,-0.001
15/07/2024 18:30:00,-0.001
15/07/2024 18:45:00,-0.001
15/07/2024 19:00:00,-0.001
15/07/2024 19:15:00,-0.001
15/07/2024 19:30:00,-0.001
15/07/2024 19:45:00,-0.001
15/07/2024 20:00:00,-0.001
15/07/2024 20:15:00,-0.001
15/07/2024 20:30:00,-0.001
15/07/2024 20:45:00,-0.001
15/07/2024 21:00:00,-0.001
15/07/2024 21:15:00,0
15/07/2024 21:30:00,-0.001
15/07/2024 21:45:00,0
15/07/2024 22:00:00,-0.001
15/07/2024 22:15:00,-0.001
15/07/2024 22:30:00,-0.001
15/07/2024 22:45:00,-0.001
15/07/2024 23:00:00,-0.001
15/07/2024 23:15:00,-0.001
15/07/2024 23:30:00,-0.001
15/07/2024 23:45:00,0
16/07/2024 00:00:00,-0.001
16/07/2024 00:15:00,-0.001
16/07/2024 00:30:00,-0.001
16/07/2024 00:45:00,-0.001
16/07/2024 01:00:00,-0.001
16/07/2024 01:15:00,-0.001
16/07/2024 01:30:00,0
16/07/2024 01:45:00,-0.001
16/07/2024 02:00:00,0
16/07/2024 02:15:00,-0.001
16/07/2024 02:30:00,-0.001
16/07/2024 02:45:00,-0.001
16/07/2024 03:00:00,-0.001
16/07/2024 03:15:00,-0.001
16/07/2024 03:30:00,-0.001
16/07/2024 03:45:00,-0.001
16/07/2024 04:00:00,-0.001
16/07/2024 04:15:00,-0.001
16/07/2024 04:30:00,-0.001
16/07/2024 04:45:00,-0.001
16/07/2024 05:00:00,-0.001
16/07/2024 05:15:00,-0.001
16/07/2024 05:30:00,-0.001
16/07/2024 05:45:00,0
16/07/2024 06:00:00,-0.001
16/07/2024 06:15:00,-0.001
16/07/2024 06:30:00,-0.001
16/07/2024 06:45:00,-0.001
16/07/2024 07:00:00,-0.001
16/07/2024 07:15:00,-0.001
16/07/2024 07:30:00,-0.001
16/07/2024 07:45:00,-0.001
16/07/2024 08:00:00,-0.001
16/07/2024 08:15:00,-0.001
16/07/2024 08:30:00,-0.001
16/07/2024 08:45:00,-0.001
16/07/2024 09:00:00,-0.001
16/07/2024 09:15:00,-0.001
16/07/2024 09:30:00,-0.001
16/07/2024 09:45:00,-0.001
16/07/2024 10:00:00,-0.001
16/07/2024 10:15:00,-0.001
16/07/2024 10:30:00,-0.001
16/07/2024 10:45:00,-0.001
16/07/2024 11:00:00,-0.001
16/07/2024 11:15:00,-0.001
16/07/2024 11:30:00,-0.001
16/07/2024 11:45:00,-0.001
16/07/2024 12:00:00,-0.001
16/07/2024 12:15:00,-0.001
16/07/2024 12:30:00,-0.001
16/07/2024 12:45:00,-0.001
16/07/2024 13:00:00,-0.002
16/07/2024 13:15:00,-0.001
16/07/2024 13:30:00,-0.002
16/07/2024 13:45:00,-0.001
16/07/2024 14:00:00,-0.002
16/07/2024 14:15:00,-0.002
16/07/2024 14:30:00,-0.002
16/07/2024 14:45:00,-0.002
16/07/2024 15:00:00,-0.002
16/07/2024 15:15:00,-0.002
16/07/2024 15:30:00,-0.002
16/07/2024 15:45:00,-0.002
16/07/2024 16:00:00,-0.002
16/07/2024 16:15:00,-0.002
16/07/2024 16:30:00,-0.002
16/07/2024 16:45:00,-0.002
16/07/2024 17:00:00,-0.002
16/07/2024 17:15:00,0.001
16/07/2024 17:30:00,0.003
16/07/2024 17:45:00,0.003
16/07/2024 18:00:00,0.005
16/07/2024 18:15:00,0.005
16/07/2024 18:30:00,0.005
16/07/2024 18:45:00,0.004
16/07/2024 19:00:00,0.003
16/07/2024 19:15:00,0.002
16/07/2024 19:30:00,0.001
16/07/2024 19:45:00,0.002
16/07/2024 20:00:00,0.002
16/07/2024 20:15:00,0.002
16/07/2024 20:30:00,0.002
16/07/2024 20:45:00,0.002
16/07/2024 21:00:00,0.002
16/07/2024 21:15:00,0.003
16/07/2024 21:30:00,0.003
16/07/2024 21:45:00,0.002
16/07/2024 22:00:00,0.003
16/07/2024 22:15:00,0.003
16/07/2024 22:30:00,0.003
16/07/2024 22:45:00,0.003
16/07/2024 23:00:00,0.003
16/07/2024 23:15:00,0.003
16/07/2024 23:30:00,0.009
16/07/2024 23:45:00,0.007
17/07/2024 00:00:00,0.014
17/07/2024 00:15:00,0.018
17/07/2024 00:30:00,0.015
17/07/2024 00:45:00,0.013
17/07/2024 01:00:00,0.011
17/07/2024 01:15:00,0.011
17/07/2024 01:30:00,0.013
17/07/2024 01:45:00,0.017
17/07/2024 02:00:00,0.015
17/07/2024 02:15:00,0.014
17/07/2024 02:30:00,0.013
17/07/2024 02:45:00,0.013
17/07/2024 03:00:00,0.014
17/07/2024 03:15:00,0.015
17/07/2024 03:30:00,0.016
17/07/2024 03:45:00,0.016
17/07/2024 04:00:00,0.015
17/07/2024 04:15:00,0.015
17/07/2024 04:30:00,0.014
17/07/2024 04:45:00,0.014
17/07/2024 05:00:00,0.014
17/07/2024 05:15:00,0.014
17/07/2024 05:30:00,0.013
17/07/2024 05:45:00,0.013
17/07/2024 06:00:00,0.013
17/07/2024 06:15:00,0.013
17/07/2024 06:30:00,0.013
17/07/2024 06:45:00,0.012
17/07/2024 07:00:00,0.012
17/07/2024 07:15:00,0.012
17/07/2024 07:30:00,0.011
17/07/2024 07:45:00,0.011
17/07/2024 08:00:00,0.01
17/07/2024 08:15:00,0.009
17/07/2024 08:30:00,0.009
17/07/2024 08:45:00,0.009
17/07/2024 09:00:00,0.008
17/07/2024 09:15:00,0.008
17/07/2024 09:30:00,0.008
17/07/2024 09:45:00,0.008
17/07/2024 10:00:00,0.007
17/07/2024 10:15:00,0.007
17/07/2024 10:30:00,0.006
17/07/2024 10:45:00,0.006
17/07/2024 11:00:00,0.006
17/07/2024 11:15:00,0.006
17/07/2024 11:30:00,0.006
17/07/2024 11:45:00,0.005
17/07/2024 12:00:00,0.005
17/07/2024 12:15:00,0.005
17/07/2024 12:30:00,0.004
17/07/2024 12:45:00,0.004
17/07/2024 13:00:00,0.004
17/07/2024 13:15:00,0.004
17/07/2024 13:30:00,0.004
17/07/2024 13:45:00,0.004
17/07/2024 14:00:00,0.003
17/07/2024 14:15:00,0.002
17/07/2024 14:30:00,0.002
17/07/2024 14:45:00,0.002
17/07/2024 15:00:00,0.002
17/07/2024 15:15:00,0.002
17/07/2024 15:30:00,0.003
17/07/2024 15:45:00,0.003
17/07/2024 16:00:00,0.002
17/07/2024 16:15:00,0.002
17/07/2024 16:30:00,0.002
17/07/2024 16:45:00,0.001
17/07/2024 17:00:00,0.001
17/07/2024 17:15:00,0.001
17/07/2024 17:30:00,0
17/07/2024 17:45:00,0
17/07/2024 18:00:00,0
17/07/2024 18:15:00,0
17/07/2024 18:30:00,0
17/07/2024 18:45:00,-0.001
17/07/2024 19:00:00,-0.001
17/07/2024 19:15:00,-0.001
17/07/2024 19:30:00,-0.001
17/07/2024 19:45:00,-0.001
17/07/2024 20:00:00,-0.002
17/07/2024 20:15:00,-0.001
17/07/2024 20:30:00,-0.001
17/07/2024 20:45:00,-0.001
17/07/2024 21:00:00,-0.001
17/07/2024 21:15:00,-0.002
17/07/2024 21:30:00,-0.002
17/07/2024 21:45:00,-0.002
17/07/2024 22:00:00,-0.002
17/07/2024 22:15:00,-0.002
17/07/2024 22:30:00,-0.002
17/07/2024 22:45:00,-0.002
17/07/2024 23:00:00,-0.002
17/07/2024 23:15:00,-0.002
17/07/2024 23:30:00,-0.002
17/07/2024 23:45:00,-0.002
